• en Belgique
  • Liste des pays
  • À 7 jours
  • Température de l'eau
  • Carte satellitaire
  • Carte météo
  • Widgets météo
  • user-avatar
    Se connecter

    Météo par heure à Benguela

    Ce jour, 24 Juin, Dimanche

    Heure Température Précipitation Vent Pression Humidité
    00:00 +26°C° 0 mm 2 m/s 760 mmHg 52%
    01:00 +25°C° 0 mm 2 m/s 760 mmHg 53%
    02:00 +25°C° 0 mm 2 m/s 760 mmHg 49%
    03:00 +24°C° 0 mm 2 m/s 760 mmHg 46%
    04:00 +24°C° 0 mm 2 m/s 760 mmHg 42%
    05:00 +24°C° 0 mm 2 m/s 760 mmHg 40%
    06:00 +24°C° 0 mm 2 m/s 760 mmHg 39%
    07:00 +24°C° 0 mm 2 m/s 760 mmHg 38%
    08:00 +27°C° 0 mm 2 m/s 760 mmHg 33%
    09:00 +31°C° 0 mm 2 m/s 760 mmHg 28%
    10:00 +35°C° 0 mm 2 m/s 760 mmHg 24%
    11:00 +36°C° 0 mm 3 m/s 760 mmHg 25%
    12:00 +37°C° 0 mm 3 m/s 759 mmHg 26%
    13:00 +38°C° 0 mm 4 m/s 759 mmHg 27%
    14:00 +37°C° 0 mm 4 m/s 758 mmHg 32%
    15:00 +35°C° 0 mm 3 m/s 758 mmHg 37%
    16:00 +34°C° 0 mm 3 m/s 758 mmHg 43%
    17:00 +31°C° 0 mm 2 m/s 758 mmHg 55%
    18:00 +28°C° 0 mm 2 m/s 759 mmHg 67%
    19:00 +26°C° 0 mm 1 m/s 759 mmHg 80%
    20:00 +25°C° 0 mm 1 m/s 760 mmHg 82%
    21:00 +25°C° 0 mm 1 m/s 760 mmHg 84%
    22:00 +22°C° 0 mm 0 m/s 761 mmHg 86%
    23:00 +24°C° 0 mm 1 m/s 761 mmHg 84%

    Demain, 25 Juin, Lundi

    Heure Température Précipitation Vent Pression Humidité
    00:00 +24°C° 0 mm 1 m/s 761 mmHg 82%
    01:00 +24°C° 0 mm 1 m/s 761 mmHg 81%
    02:00 +24°C° 0 mm 1 m/s 760 mmHg 77%
    03:00 +23°C° 0 mm 1 m/s 760 mmHg 74%
    04:00 +23°C° 0 mm 1 m/s 760 mmHg 70%
    05:00 +23°C° 0 mm 1 m/s 760 mmHg 66%
    06:00 +23°C° 0 mm 1 m/s 760 mmHg 63%
    07:00 +23°C° 0 mm 1 m/s 760 mmHg 59%
    08:00 +26°C° 0 mm 1 m/s 760 mmHg 49%
    09:00 +30°C° 0 mm 2 m/s 761 mmHg 39%
    10:00 +34°C° 0 mm 2 m/s 761 mmHg 29%
    11:00 +35°C° 0 mm 2 m/s 760 mmHg 28%
    12:00 +36°C° 0 mm 3 m/s 759 mmHg 28%
    13:00 +37°C° 0 mm 3 m/s 759 mmHg 28%
    14:00 +36°C° 0 mm 3 m/s 758 mmHg 33%
    15:00 +35°C° 0 mm 4 m/s 758 mmHg 38%
    16:00 +34°C° 0 mm 4 m/s 757 mmHg 43%
    17:00 +31°C° 0 mm 3 m/s 758 mmHg 53%
    18:00 +28°C° 0 mm 3 m/s 758 mmHg 63%
    19:00 +26°C° 0 mm 2 m/s 759 mmHg 73%
    20:00 +25°C° 0 mm 2 m/s 759 mmHg 75%
    21:00 +25°C° 0 mm 2 m/s 760 mmHg 76%
    22:00 +24°C° 0 mm 1 m/s 760 mmHg 78%
    23:00 +24°C° 0 mm 1 m/s 760 mmHg 74%

    Après-demain, 26 Juin, Mardi

    Heure Température Précipitation Vent Pression Humidité
    00:00 +24°C° 0 mm 1 m/s 760 mmHg 71%
    01:00 +24°C° 0 mm 1 m/s 760 mmHg 68%
    02:00 +24°C° 0 mm 1 m/s 760 mmHg 63%
    03:00 +24°C° 0 mm 1 m/s 759 mmHg 59%
    04:00 +23°C° 0 mm 1 m/s 759 mmHg 55%
    05:00 +23°C° 0 mm 1 m/s 759 mmHg 51%
    06:00 +23°C° 0 mm 1 m/s 760 mmHg 48%
    07:00 +24°C° 0 mm 2 m/s 760 mmHg 44%
    08:00 +27°C° 0 mm 2 m/s 760 mmHg 36%
    09:00 +31°C° 0 mm 2 m/s 760 mmHg 29%
    10:00 +35°C° 0 mm 2 m/s 760 mmHg 21%
    11:00 +36°C° 0 mm 2 m/s 759 mmHg 21%
    12:00 +37°C° 0 mm 3 m/s 759 mmHg 21%
    13:00 +38°C° 0 mm 3 m/s 758 mmHg 20%
    14:00 +37°C° 0 mm 4 m/s 758 mmHg 23%
    15:00 +36°C° 0 mm 4 m/s 757 mmHg 26%
    16:00 +35°C° 0 mm 4 m/s 757 mmHg 29%
    17:00 +33°C° 0 mm 3 m/s 758 mmHg 35%
    18:00 +30°C° 0 mm 3 m/s 758 mmHg 42%
    19:00 +27°C° 0 mm 2 m/s 759 mmHg 49%
    20:00 +27°C° 0 mm 2 m/s 759 mmHg 48%
    21:00 +27°C° 0 mm 2 m/s 760 mmHg 47%
    22:00 +26°C° 0 mm 2 m/s 760 mmHg 46%
    23:00 +26°C° 0 mm 2 m/s 760 mmHg 45%

    27 Juin, Mercredi

    Heure Température Précipitation Vent Pression Humidité
    00:00 +26°C° 0 mm 2 m/s 760 mmHg 44%
    01:00 +25°C° 0 mm 2 m/s 760 mmHg 43%
    02:00 +25°C° 0 mm 2 m/s 759 mmHg 41%
    03:00 +25°C° 0 mm 2 m/s 759 mmHg 39%
    04:00 +25°C° 0 mm 2 m/s 759 mmHg 37%
    05:00 +25°C° 0 mm 2 m/s 759 mmHg 37%
    06:00 +24°C° 0 mm 2 m/s 760 mmHg 37%
    07:00 +24°C° 0 mm 2 m/s 760 mmHg 37%
    08:00 +28°C° 0 mm 2 m/s 760 mmHg 31%
    09:00 +31°C° 0 mm 2 m/s 760 mmHg 26%
    10:00 +36°C° 0 mm 2 m/s 760 mmHg 21%
    11:00 +37°C° 0 mm 3 m/s 759 mmHg 21%
    12:00 +38°C° 0 mm 3 m/s 758 mmHg 21%
    13:00 +38°C° 0 mm 4 m/s 758 mmHg 21%
    14:00 +37°C° 0 mm 4 m/s 757 mmHg 25%
    15:00 +36°C° 0 mm 3 m/s 757 mmHg 29%
    16:00 +35°C° 0 mm 3 m/s 757 mmHg 33%
    17:00 +31°C° 0 mm 3 m/s 758 mmHg 41%
    18:00 +29°C° 0 mm 2 m/s 758 mmHg 50%
    19:00 +27°C° 0 mm 2 m/s 759 mmHg 58%
    20:00 +26°C° 0 mm 2 m/s 759 mmHg 60%
    21:00 +26°C° 0 mm 1 m/s 760 mmHg 62%
    22:00 +25°C° 0 mm 1 m/s 760 mmHg 63%
    23:00 +25°C° 0 mm 1 m/s 760 mmHg 63%

    28 Juin, Jeudi

    Heure Température Précipitation Vent Pression Humidité
    00:00 +25°C° 0 mm 1 m/s 760 mmHg 62%
    01:00 +25°C° 0 mm 1 m/s 759 mmHg 61%
    02:00 +24°C° 0 mm 1 m/s 759 mmHg 59%
    03:00 +24°C° 0 mm 1 m/s 759 mmHg 56%
    04:00 +24°C° 0 mm 1 m/s 759 mmHg 54%
    05:00 +24°C° 0 mm 1 m/s 759 mmHg 51%
    06:00 +24°C° 0 mm 1 m/s 759 mmHg 49%
    07:00 +24°C° 0 mm 1 m/s 760 mmHg 46%
    08:00 +27°C° 0 mm 2 m/s 760 mmHg 38%
    09:00 +31°C° 0 mm 2 m/s 760 mmHg 31%
    10:00 +35°C° 0 mm 3 m/s 760 mmHg 23%
    11:00 +36°C° 0 mm 3 m/s 759 mmHg 24%
    12:00 +37°C° 0 mm 3 m/s 759 mmHg 25%
    13:00 +38°C° 0 mm 4 m/s 758 mmHg 27%
    14:00 +37°C° 0 mm 3 m/s 758 mmHg 31%
    15:00 +36°C° 0 mm 3 m/s 757 mmHg 35%
    16:00 +35°C° 0 mm 3 m/s 757 mmHg 38%
    17:00 +31°C° 0 mm 2 m/s 758 mmHg 48%
    18:00 +29°C° 0 mm 2 m/s 758 mmHg 58%
    19:00 +27°C° 0 mm 1 m/s 759 mmHg 68%
    20:00 +26°C° 0 mm 1 m/s 759 mmHg 70%
    21:00 +25°C° 0 mm 1 m/s 759 mmHg 72%
    22:00 +25°C° 0 mm 1 m/s 760 mmHg 74%
    23:00 +25°C° 0 mm 1 m/s 759 mmHg 74%

    29 Juin, Vendredi

    Heure Température Précipitation Vent Pression Humidité
    00:00 +25°C° 0 mm 1 m/s 759 mmHg 73%
    01:00 +22°C° 0 mm 0 m/s 759 mmHg 72%
    02:00 +24°C° 0 mm 1 m/s 759 mmHg 70%
    03:00 +24°C° 0 mm 1 m/s 759 mmHg 68%
    04:00 +24°C° 0 mm 1 m/s 759 mmHg 66%
    05:00 +24°C° 0 mm 1 m/s 759 mmHg 64%
    06:00 +24°C° 0 mm 1 m/s 759 mmHg 61%
    07:00 +24°C° 0 mm 1 m/s 760 mmHg 59%
    08:00 +27°C° 0 mm 2 m/s 760 mmHg 49%
    09:00 +30°C° 0 mm 3 m/s 760 mmHg 39%
    10:00 +34°C° 0 mm 3 m/s 760 mmHg 29%
    11:00 +35°C° 0 mm 4 m/s 759 mmHg 31%
    12:00 +36°C° 0 mm 4 m/s 758 mmHg 34%
    13:00 +36°C° 0 mm 4 m/s 758 mmHg 36%
    14:00 +35°C° 0 mm 4 m/s 757 mmHg 41%
    15:00 +34°C° 0 mm 3 m/s 757 mmHg 46%
    16:00 +33°C° 0 mm 3 m/s 757 mmHg 52%
    17:00 +30°C° 0 mm 2 m/s 757 mmHg 63%
    18:00 +28°C° 0 mm 2 m/s 758 mmHg 75%
    19:00 +25°C° 0 mm 1 m/s 759 mmHg 87%
    20:00 +25°C° 0 mm 1 m/s 759 mmHg 89%
    21:00 +25°C° 0 mm 1 m/s 759 mmHg 91%
    22:00 +24°C° 0 mm 1 m/s 760 mmHg 93%
    23:00 +24°C° 0 mm 1 m/s 760 mmHg 92%
    Voir plus